Wind_Speed
15 16 15 15 15 14 10 8 8 8 8 8 9 10 9 10 10 11 10 10 11 12 12 12 13 12 11 10 9 9 10 11 11 11 11 11 12 12 13 13 13 14 15 16 17 18 18 18 17
13 13 11 12 13 9 10 11 12 11 11 11 12 10 9 11 11 11 11 11 11 11 11 10 10 9 10 10 8 7 8 9 10 11 11 12 13 14 15 15 16 16 17 17 17 17 17 17 17
12 11 10 12 12 12 12 13 14 13 11 11 11 9 8 10 11 11 11 12 11 10 8 8 9 10 12 12 11 9 8 9 9 10 11 12 12 13 14 15 16 17 17 18 18 17 18 19 19
10 10 11 13 15 14 14 12 11 9 8 8 8 7 7 8 8 8 9 9 8 8 8 8 8 9 11 11 11 11 9 9 9 9 9 10 9 9 10 11 13 15 16 16 17 18 19 20 21
10 11 12 13 15 14 11 10 8 6 3 4 3 3 4 5 7 9 9 8 8 7 7 7 6 6 8 8 8 9 9 11 10 9 9 9 10 9 10 11 12 15 16 17 18 19 20 21 22
10 11 13 14 14 13 12 10 8 8 3 2 2 2 4 7 9 10 10 11 11 9 6 2 6 8 9 10 9 10 11 12 11 10 10 11 11 11 12 13 15 17 17 17 18 19 20 22 24
11 12 16 17 16 14 11 9 9 8 4 3 4 5 7 10 9 9 10 12 12 11 8 3 4 8 10 10 11 12 12 12 12 12 12 12 13 15 16 17 18 19 19 20 20 21 23 24 25
11 12 15 17 16 13 8 7 7 6 5 4 5 7 8 12 11 9 9 10 11 12 11 10 5 5 10 13 12 10 10 10 11 13 14 14 16 18 20 20 19 20 21 21 22 23 24 25 26
11 14 16 18 17 13 9 7 5 6 6 5 6 9 10 11 12 12 9 9 10 11 11 9 9 5 6 11 13 11 11 11 14 16 17 18 19 20 20 19 18 19 21 21 22 23 25 26 27
12 14 17 14 14 13 11 9 6 7 7 7 8 10 10 12 14 15 11 7 8 10 10 9 8 7 4 5 9 11 11 12 14 16 17 18 19 20 19 16 16 18 19 20 21 22 24 25 27
12 15 13 13 15 15 14 13 9 9 8 8 10 11 11 12 15 17 13 8 6 8 9 9 9 10 8 7 7 9 11 13 16 17 19 20 21 20 19 18 18 19 19 20 21 22 23 24 26
14 14 15 15 15 17 18 14 13 11 8 10 12 13 12 12 15 17 15 11 7 7 6 7 8 9 9 9 10 11 13 15 17 19 20 20 21 21 20 20 20 20 20 20 22 24 25 26 26
19 18 17 17 17 19 19 16 15 16 13 15 16 16 15 14 17 16 16 13 9 7 6 6 6 6 7 9 10 11 12 14 16 18 19 20 20 19 19 20 19 18 19 21 22 24 25 25 26
24 21 20 21 21 22 21 19 18 20 18 19 20 19 17 16 19 16 15 14 11 8 7 7 6 5 7 8 9 9 11 13 15 17 18 19 18 19 19 19 19 19 20 22 25 26 28 30 32
26 23 23 25 26 27 24 23 25 25 24 23 23 20 18 17 20 17 15 14 13 10 8 7 6 5 7 9 9 9 10 12 15 17 17 18 18 19 20 20 19 20 22 25 28 30 33 35 36
29 27 27 29 31 31 28 23 31 30 29 28 26 22 18 19 22 20 16 15 14 12 10 9 6 5 7 10 12 13 13 14 16 18 18 18 18 19 20 20 21 23 25 27 30 33 36 38 40
31 31 31 32 35 35 32 28 38 33 33 32 29 25 20 19 23 22 18 18 16 15 14 11 9 9 11 13 15 17 18 20 22 23 22 22 21 21 22 23 24 25 27 30 33 36 39 40 42
34 35 36 37 39 37 38 40 43 39 37 35 32 29 23 20 24 24 21 21 19 18 17 14 13 14 16 17 19 20 21 23 25 26 26 27 27 27 28 28 29 30 33 37 40 41 42 43 44
36 36 37 38 41 38 42 46 47 43 41 38 35 32 28 24 28 29 26 25 23 21 19 17 18 20 22 23 24 24 26 28 28 27 28 30 32 33 34 34 34 36 39 42 44 46 47 47 48
34 36 37 38 40 41 46 48 47 45 43 41 40 37 33 30 31 33 31 30 29 28 26 22 22 23 25 27 29 30 31 32 33 32 33 35 37 37 38 39 38 40 43 45 47 49 50 52 54
36 37 37 37 39 42 46 47 46 45 43 42 42 39 34 32 31 33 32 32 33 32 31 30 29 28 29 31 32 34 35 37 38 40 41 42 43 42 42 44 46 48 49 50 52 53 53 55 57
33 35 37 37 39 40 45 45 39 44 42 41 41 41 37 34 34 35 34 32 32 33 34 35 34 32 32 33 35 38 39 40 42 44 45 48 48 48 49 50 52 54 54 54 55 55 56 57 59
32 34 36 37 38 41 44 46 40 42 42 39 39 40 41 39 39 38 34 32 34 36 37 37 37 35 34 36 38 40 42 46 47 47 48 51 52 53 52 51 51 52 53 54 56 57 57 59 61
29 31 32 34 37 42 40 42 38 34 38 36 37 38 40 41 41 38 37 37 37 38 39 40 39 37 37 37 39 42 44 47 49 50 50 49 49 49 48 48 48 49 51 53 56 57 57 59 62
28 28 28 30 33 35 32 38 36 33 35 35 35 36 37 37 36 36 37 37 38 40 42 43 42 39 36 38 41 44 45 48 49 48 45 43 42 42 44 48 50 52 53 55 57 57 58 60 62
30 30 29 28 25 23 26 33 28 31 34 32 30 29 28 27 27 29 32 35 38 40 41 41 40 37 36 39 43 44 44 45 43 41 40 40 42 44 47 50 52 53 54 55 56 57 59 60 58
29 30 29 30 30 28 28 28 29 30 29 26 26 25 23 22 23 25 28 31 33 35 36 37 37 37 39 42 45 47 46 42 40 39 41 43 44 47 49 51 53 53 53 55 56 58 59 58 55
30 28 28 31 30 30 28 25 22 22 24 21 20 21 21 20 20 22 24 27 30 31 32 34 36 39 42 44 46 44 41 40 42 45 45 44 45 48 52 53 53 53 54 56 57 58 56 56 55
31 32 32 30 26 26 27 24 25 28 25 21 19 20 21 23 25 26 26 28 30 31 32 33 36 40 42 43 44 43 42 44 50 48 45 45 47 50 51 51 53 54 56 57 56 55 55 56 55
32 33 31 29 27 27 27 25 28 29 25 21 20 20 21 24 26 27 28 29 30 33 34 35 37 39 40 41 43 45 48 51 52 48 46 46 48 49 49 51 54 56 56 56 55 54 55 55 55
Wind_Direction
206 209 216 218 210 213 214 208 214 221 229 248 267 280 297 307 302 297 294 304 321 326 317 305 302 302 299 287 271 262 255 248 246 248 255 262 268 271 270 265 259 257 258 259 260 260 259 259 258
209 204 199 192 187 187 218 214 221 237 252 264 275 285 305 317 312 303 308 313 314 320 330 333 327 314 302 290 274 257 246 240 238 240 247 256 263 267 266 264 263 262 261 260 261 263 263 262 261
208 189 169 165 164 165 190 207 228 247 256 265 276 292 311 322 324 322 325 323 309 305 321 337 333 309 292 282 267 255 243 237 235 241 249 256 262 268 271 272 271 270 266 263 262 262 263 264 264
185 171 161 151 147 165 181 199 222 238 253 273 285 302 320 333 346 351 351 341 325 312 303 303 310 302 295 276 253 236 226 233 245 255 258 260 267 276 278 276 273 270 268 265 261 260 261 265 266
165 155 155 151 155 170 190 206 215 230 265 298 295 314 340 1 13 15 12 5 355 336 311 289 270 266 272 256 244 237 247 254 260 261 263 265 268 273 275 277 276 273 269 267 265 264 265 267 269
165 160 161 162 177 188 207 221 233 249 261 2 64 76 52 45 27 16 7 3 359 358 351 264 231 235 239 244 245 246 254 258 257 256 259 263 266 269 271 275 277 275 273 270 269 271 272 271 270
172 171 170 178 189 200 222 238 243 262 294 9 52 46 56 54 31 13 5 7 12 12 4 340 233 230 231 234 238 241 248 251 254 256 259 260 267 274 278 280 279 276 274 272 274 275 275 275 274
191 182 180 191 200 214 240 255 262 280 305 346 28 31 37 41 25 7 8 14 22 19 17 18 360 258 237 234 235 242 249 255 260 265 269 273 277 281 283 284 282 278 278 280 280 279 279 278 277
204 191 193 203 210 223 240 264 282 300 312 334 8 15 13 21 16 6 9 14 16 9 7 17 20 3 255 241 237 242 251 263 269 271 274 278 281 284 285 286 285 285 284 283 281 280 280 280 280
212 206 211 217 224 232 240 255 297 311 328 334 344 353 356 0 5 1 1 3 6 2 359 5 15 16 347 275 252 252 263 276 281 281 286 291 291 286 285 289 292 293 290 288 287 285 284 283 283
227 225 225 227 230 236 245 254 283 314 329 326 321 330 342 347 352 351 348 343 352 352 352 2 7 2 351 329 300 286 284 287 291 292 295 299 299 292 292 297 298 298 297 296 294 292 290 290 288
236 237 236 238 236 237 242 252 265 294 305 309 313 315 327 328 332 337 337 331 336 343 349 0 9 356 345 331 312 300 298 301 303 300 300 304 306 303 302 305 302 296 295 295 294 292 293 294 291
239 243 244 247 246 244 247 254 262 276 289 305 307 307 310 306 309 319 322 319 317 315 319 330 342 339 333 327 319 313 314 313 310 309 309 309 306 300 300 306 305 297 294 294 294 294 293 293 293
241 245 249 250 250 251 255 260 264 268 277 292 298 295 290 287 293 300 305 308 312 300 295 303 308 326 341 339 331 327 327 322 315 312 310 308 304 298 295 296 293 291 293 296 298 298 297 296 295
244 247 249 249 249 252 258 262 264 263 268 280 287 282 276 275 280 281 286 294 306 303 293 293 296 327 345 342 331 325 322 318 314 311 308 304 300 296 295 295 293 292 295 299 301 301 300 299 298
243 245 247 249 248 251 255 256 260 261 266 272 281 279 268 260 265 267 270 280 291 291 290 288 285 305 318 315 310 307 309 313 316 313 308 306 305 304 303 302 300 299 300 302 302 300 298 296 295
242 242 241 245 251 251 253 245 256 264 266 269 274 275 265 250 254 260 259 268 278 278 280 286 284 287 293 296 298 299 301 306 310 310 308 307 305 303 300 299 297 295 296 300 302 301 297 295 293
241 239 239 240 252 250 251 252 260 263 265 267 269 269 264 249 249 256 257 260 266 270 277 285 290 293 298 302 302 299 299 303 307 307 305 303 300 297 295 293 292 292 295 299 301 301 299 295 292
241 242 241 241 249 251 251 253 258 260 264 267 268 264 259 251 252 258 259 259 260 261 267 278 289 296 300 303 307 304 299 299 303 305 303 301 297 292 288 287 288 291 294 297 300 301 300 297 294
244 244 244 245 248 249 251 253 257 258 261 265 269 267 261 258 257 258 261 260 259 259 262 271 281 292 298 302 305 306 301 297 298 299 300 298 296 293 288 284 283 286 291 295 297 298 298 297 295
250 249 247 246 248 250 254 257 260 260 260 262 266 269 267 263 257 257 263 263 260 264 272 279 282 288 294 297 301 303 301 298 299 300 298 298 294 289 287 286 285 286 290 294 296 296 296 295 295
256 254 252 249 249 251 255 257 258 264 262 262 265 269 271 268 263 263 268 263 260 265 271 277 282 284 289 295 299 301 299 296 296 299 298 298 297 290 287 288 289 288 288 292 295 296 296 296 295
259 257 256 254 254 253 256 260 260 265 268 265 265 267 269 270 270 269 265 261 262 265 269 275 279 282 288 293 297 296 296 296 296 297 298 299 298 294 292 291 291 289 288 290 293 295 295 295 295
266 264 262 260 258 257 258 263 264 266 269 267 265 265 267 269 270 265 261 264 267 269 271 275 278 282 288 290 292 294 297 300 301 299 298 299 300 299 296 293 292 292 292 292 293 295 294 294 294
263 261 261 261 260 264 265 263 264 261 267 270 268 267 269 269 268 263 262 265 268 271 274 277 280 282 283 285 289 295 298 300 301 301 301 301 302 301 298 295 294 293 293 294 295 295 294 294 294
262 259 257 256 258 264 264 268 265 263 270 272 271 271 271 271 269 267 267 269 270 272 274 276 278 278 281 285 289 294 298 300 300 302 304 305 305 302 299 297 295 294 294 294 294 294 294 293 292
258 261 264 262 260 256 254 261 271 272 272 270 266 266 266 267 273 276 275 274 275 275 274 275 277 282 285 288 291 293 294 298 303 306 308 308 306 303 299 298 297 296 296 296 295 294 293 292 292
257 260 261 262 263 263 266 268 275 272 275 273 267 259 259 264 274 280 281 281 281 280 279 278 282 286 288 290 292 294 296 301 308 311 310 306 303 300 299 300 299 298 297 296 295 294 294 295 294
253 256 259 261 259 260 266 268 264 270 281 280 273 267 268 272 280 286 287 286 284 283 282 284 290 292 291 292 294 295 300 306 312 312 307 303 301 299 299 299 298 297 296 295 295 295 295 295 294
243 249 253 254 259 267 270 271 266 271 277 279 277 275 276 280 284 289 292 292 290 286 285 288 291 294 294 299 301 303 307 309 309 307 302 299 298 298 298 298 296 295 294 294 295 296 296 297 297
Height
5894 5895 5896 5898 5902 5905 5907 5907 5906 5904 5903 5902 5901 5901 5900 5900 5899 5899 5896 5894 5893 5892 5891 5891 5890 5891 5891 5891 5891 5891 5891 5891 5891 5891 5892 5892 5891 5891 5891 5892 5892 5892 5893 5894 5894 5894 5894 5894 5895
5893 5893 5895 5898 5901 5907 5908 5906 5904 5903 5902 5901 5900 5899 5899 5897 5896 5894 5893 5891 5891 5890 5889 5888 5889 5889 5890 5889 5889 5888 5888 5888 5888 5888 5888 5888 5888 5887 5887 5887 5888 5889 5890 5890 5891 5891 5891 5891 5892
5892 5893 5896 5898 5900 5906 5906 5904 5903 5901 5900 5899 5899 5898 5898 5896 5894 5892 5890 5889 5888 5887 5886 5887 5887 5888 5888 5887 5886 5886 5886 5886 5886 5885 5885 5885 5885 5885 5885 5884 5885 5885 5886 5886 5887 5887 5887 5887 5888
5892 5894 5896 5899 5901 5902 5902 5902 5900 5899 5899 5898 5898 5897 5896 5895 5892 5891 5888 5886 5885 5884 5883 5884 5885 5885 5885 5884 5884 5883 5883 5883 5883 5883 5883 5883 5883 5882 5882 5882 5882 5882 5882 5883 5883 5883 5883 5883 5883
5891 5894 5897 5899 5900 5901 5901 5900 5899 5899 5899 5898 5897 5896 5894 5893 5891 5889 5886 5884 5883 5881 5880 5880 5880 5881 5882 5882 5882 5882 5882 5881 5880 5880 5880 5880 5879 5880 5880 5880 5880 5880 5879 5879 5880 5879 5879 5878 5878
5891 5894 5897 5899 5901 5901 5900 5899 5899 5899 5899 5899 5897 5896 5894 5892 5890 5887 5885 5883 5881 5879 5877 5876 5876 5877 5878 5879 5879 5880 5879 5878 5878 5878 5878 5877 5877 5877 5877 5878 5877 5877 5877 5876 5876 5876 5875 5874 5873
5891 5893 5895 5897 5899 5899 5899 5899 5898 5898 5898 5898 5897 5896 5894 5891 5889 5887 5885 5883 5880 5878 5877 5875 5874 5874 5874 5875 5875 5876 5876 5876 5876 5876 5876 5876 5876 5875 5875 5874 5874 5874 5874 5873 5873 5872 5871 5870 5869
5890 5893 5894 5895 5897 5898 5898 5898 5898 5897 5897 5896 5896 5895 5893 5891 5889 5887 5885 5883 5880 5878 5877 5875 5873 5872 5872 5872 5872 5873 5874 5874 5874 5874 5874 5874 5873 5872 5871 5870 5870 5870 5869 5868 5868 5867 5866 5865 5864
5889 5893 5894 5894 5895 5896 5897 5897 5897 5897 5896 5895 5894 5894 5892 5890 5889 5887 5885 5882 5880 5878 5877 5875 5873 5871 5870 5870 5870 5871 5871 5871 5871 5871 5871 5870 5870 5868 5867 5866 5866 5865 5863 5863 5863 5862 5861 5860 5859
5887 5890 5891 5892 5893 5894 5894 5895 5895 5894 5894 5893 5893 5892 5890 5888 5887 5886 5884 5882 5880 5878 5876 5874 5872 5871 5869 5869 5868 5868 5869 5869 5868 5868 5868 5867 5866 5864 5863 5862 5861 5860 5859 5858 5858 5857 5856 5855 5854
5885 5886 5887 5889 5891 5892 5892 5893 5893 5893 5892 5892 5891 5891 5889 5887 5886 5885 5884 5882 5881 5879 5876 5874 5872 5870 5869 5868 5867 5867 5867 5866 5866 5865 5864 5863 5861 5860 5858 5857 5856 5855 5854 5853 5853 5852 5851 5850 5849
5882 5883 5884 5886 5887 5889 5889 5890 5891 5890 5891 5891 5890 5889 5888 5886 5885 5884 5883 5881 5880 5878 5876 5873 5870 5868 5867 5866 5865 5864 5864 5863 5863 5861 5860 5858 5856 5854 5853 5852 5850 5850 5849 5848 5847 5846 5845 5844 5842
5878 5880 5881 5882 5883 5885 5886 5887 5888 5887 5887 5887 5887 5887 5886 5884 5882 5883 5881 5879 5878 5876 5874 5872 5869 5867 5865 5864 5863 5862 5861 5860 5859 5857 5856 5854 5852 5851 5850 5848 5847 5845 5844 5843 5842 5840 5838 5837 5835
5874 5876 5877 5878 5879 5880 5882 5883 5884 5883 5884 5884 5884 5884 5883 5882 5879 5880 5878 5876 5875 5874 5872 5869 5867 5864 5863 5862 5861 5860 5859 5857 5856 5854 5852 5850 5848 5847 5846 5844 5842 5840 5839 5837 5835 5834 5831 5829 5827
5870 5873 5874 5874 5875 5876 5878 5879 5879 5878 5879 5880 5881 5881 5880 5879 5876 5876 5874 5873 5872 5871 5869 5867 5865 5863 5861 5860 5859 5857 5856 5854 5852 5850 5848 5846 5844 5842 5840 5838 5837 5835 5833 5831 5828 5826 5824 5821 5819
5866 5869 5871 5871 5870 5871 5876 5878 5872 5873 5874 5876 5876 5876 5876 5875 5872 5871 5871 5869 5868 5867 5866 5864 5863 5861 5859 5858 5856 5855 5853 5851 5849 5847 5844 5842 5839 5837 5835 5833 5831 5828 5826 5824 5821 5819 5816 5813 5810
5861 5864 5866 5867 5864 5866 5869 5873 5864 5867 5869 5870 5871 5871 5871 5870 5867 5866 5867 5866 5865 5863 5862 5861 5860 5859 5857 5855 5853 5852 5850 5848 5846 5843 5841 5838 5835 5833 5830 5827 5824 5822 5819 5817 5814 5811 5807 5804 5800
5854 5856 5858 5861 5856 5860 5861 5861 5858 5860 5862 5864 5865 5865 5866 5865 5862 5861 5863 5862 5861 5859 5858 5857 5856 5855 5854 5852 5850 5848 5847 5844 5842 5839 5836 5834 5831 5828 5825 5821 5818 5815 5813 5810 5806 5802 5798 5794 5790
5844 5848 5850 5852 5850 5853 5853 5852 5851 5853 5855 5856 5858 5859 5860 5860 5857 5856 5857 5857 5856 5854 5853 5852 5851 5850 5849 5848 5846 5844 5842 5840 5837 5834 5831 5829 5825 5822 5818 5815 5812 5808 5805 5801 5797 5792 5787 5783 5778
5837 5839 5842 5845 5845 5845 5844 5843 5843 5846 5848 5849 5849 5851 5853 5853 5852 5851 5851 5852 5851 5849 5847 5846 5846 5845 5844 5842 5840 5838 5835 5833 5831 5828 5825 5822 5819 5815 5811 5807 5803 5799 5795 5791 5786 5781 5775 5770 5764
5831 5833 5834 5837 5837 5836 5835 5836 5837 5837 5841 5842 5842 5843 5846 5847 5846 5845 5845 5846 5845 5844 5842 5840 5839 5838 5836 5834 5831 5828 5826 5824 5821 5819 5816 5813 5810 5806 5802 5798 5794 5789 5784 5780 5774 5768 5762 5755 5748
5823 5825 5826 5827 5829 5829 5827 5828 5832 5828 5831 5834 5835 5836 5838 5839 5838 5838 5838 5839 5839 5837 5835 5833 5831 5829 5827 5825 5822 5819 5817 5814 5811 5808 5805 5801 5798 5794 5791 5787 5782 5777 5771 5766 5760 5753 5746 5740 5732
5815 5816 5818 5819 5821 5821 5819 5819 5825 5821 5823 5826 5828 5829 5830 5831 5831 5831 5831 5831 5831 5829 5827 5825 5823 5821 5819 5816 5813 5810 5807 5804 5800 5796 5793 5788 5785 5781 5777 5773 5767 5762 5756 5751 5745 5738 5731 5724 5718
5809 5810 5811 5811 5812 5812 5814 5813 5816 5817 5815 5818 5820 5821 5822 5822 5823 5824 5824 5823 5822 5820 5818 5816 5814 5811 5809 5806 5804 5801 5798 5794 5789 5785 5782 5777 5772 5769 5764 5759 5754 5748 5742 5736 5730 5723 5716 5710 5702
5802 5804 5804 5804 5804 5805 5808 5806 5809 5809 5808 5810 5812 5813 5813 5814 5815 5816 5816 5815 5813 5810 5808 5805 5803 5801 5799 5797 5795 5792 5788 5784 5780 5775 5770 5765 5760 5755 5751 5746 5741 5734 5728 5721 5715 5708 5702 5695 5688
5794 5796 5799 5801 5803 5804 5801 5798 5803 5800 5800 5802 5803 5804 5804 5805 5806 5806 5806 5805 5803 5801 5798 5796 5794 5791 5790 5789 5786 5782 5778 5774 5769 5764 5758 5753 5748 5742 5738 5733 5727 5720 5714 5707 5701 5693 5687 5679 5672
5788 5789 5792 5793 5793 5794 5796 5796 5793 5793 5794 5795 5796 5797 5798 5798 5798 5798 5796 5795 5793 5791 5789 5787 5785 5783 5781 5779 5776 5772 5768 5763 5758 5752 5747 5741 5736 5730 5724 5719 5713 5706 5700 5693 5686 5679 5672 5664 5658
5783 5785 5786 5785 5786 5787 5789 5790 5791 5789 5788 5789 5790 5791 5791 5791 5790 5789 5788 5786 5784 5782 5781 5779 5777 5775 5772 5769 5764 5760 5756 5752 5746 5741 5735 5729 5723 5717 5711 5706 5699 5693 5686 5679 5672 5664 5657 5651 5645
5777 5778 5778 5780 5781 5782 5783 5787 5784 5781 5782 5783 5784 5784 5784 5784 5783 5782 5780 5778 5776 5775 5773 5771 5769 5765 5761 5757 5753 5749 5745 5739 5734 5728 5722 5717 5711 5705 5699 5693 5686 5679 5672 5665 5657 5650 5643 5637 5631
5770 5771 5773 5774 5774 5774 5775 5780 5774 5774 5775 5776 5777 5777 5777 5777 5776 5775 5773 5771 5769 5767 5765 5762 5759 5755 5751 5746 5741 5737 5732 5727 5721 5715 5710 5704 5698 5693 5686 5680 5673 5666 5659 5652 5644 5637 5630 5623 5616